Date String (YYYY-MM-DD hh:mm:ss) UTC,Instrument flags,Ambient pressure (hPa),Sample flow (lpm),Bypass flow (lpm),Sample temperature (°C),Ambient temperature (°C),ASC tube jacket temperature (°C),LED temperature (°C),Box temperature (°C),Sample RH (%),Span deviation,Mass concentration (μg/m³),Mass concentration (μg/m³),Mass concentration (μg/m³)
DateTimeUTC,F1_M11,P_M11,Q1_M11,Q2_M11,T1_M11,T2_M11,T3_M11,T4_M11,T5_M11,U1_M11,ZSPAN_M11,X0_M11,X2_M11,X1_M11
2022-10-20 16:00:00,,0828.2,5.01,0.00,29.1,27.9,00.0,37.7,30.9,08.8,0000.0,0010.23,0003.19,0002.20
2022-10-20 16:01:00,,0828.3,5.01,0.00,29.1,28.0,00.0,37.7,30.9,10.1,0000.0,0010.46,0003.24,0002.24
2022-10-20 16:02:00,,0828.2,4.98,0.00,29.1,28.0,00.0,37.8,30.9,10.1,0000.0,0010.74,0003.31,0002.23
2022-10-20 16:03:00,,0828.3,5.01,0.00,29.1,28.0,00.0,37.8,31.0,10.6,0000.0,0010.70,0003.27,0002.20
2022-10-20 16:04:00,,0828.2,5.02,0.00,29.1,28.0,00.0,37.8,31.0,10.9,0000.0,0010.94,0003.29,0002.19
2022-10-20 16:05:00,,0828.3,4.99,0.00,29.2,28.1,00.0,37.8,31.0,11.0,0000.0,0010.85,0003.28,0002.19
2022-10-20 16:06:00,,0828.2,4.99,0.00,29.2,28.1,00.0,37.9,31.0,10.9,0000.0,0011.18,0003.30,0002.19
2022-10-20 16:07:00,,0828.2,5.00,0.00,29.2,28.1,00.0,37.9,31.1,11.4,0000.0,0012.11,0003.33,0002.21
2022-10-20 16:08:00,,0828.2,5.00,0.00,29.2,28.1,00.0,37.9,31.1,11.5,0000.0,0012.15,0003.42,0002.23
2022-10-20 16:09:00,,0828.3,4.99,0.00,29.2,28.1,00.0,37.9,31.1,11.4,0000.0,0012.46,0003.48,0002.25
2022-10-20 16:10:00,,0828.2,5.00,0.00,29.3,28.1,00.0,38.0,31.1,11.3,0000.0,0012.53,0003.49,0002.26
2022-10-20 16:11:00,,0828.3,5.01,0.00,29.3,28.1,00.0,38.0,31.1,11.1,0000.0,0012.45,0003.53,0002.27
2022-10-20 16:12:00,,0828.2,5.00,0.00,29.3,28.1,00.0,38.0,31.1,10.9,0000.0,0012.36,0003.53,0002.26
2022-10-20 16:13:00,,0828.2,5.00,0.00,29.3,28.2,00.0,38.0,31.2,10.5,0000.0,0012.33,0003.45,0002.26
2022-10-20 16:14:00,,0828.1,5.00,0.00,29.3,28.2,00.0,38.0,31.2,10.3,0000.0,0012.48,0003.46,0002.25
2022-10-20 16:15:00,,0828.2,5.00,0.00,29.4,28.2,00.0,38.1,31.2,10.0,0000.0,0012.41,0003.44,0002.23
2022-10-20 16:16:00,,0828.1,5.00,0.00,29.4,28.2,00.0,38.1,31.2,09.7,0000.0,0013.10,0003.45,0002.21
2022-10-20 16:17:00,,0828.1,4.99,0.00,29.4,28.3,00.0,38.1,31.3,09.3,0000.0,0012.49,0003.41,0002.18
2022-10-20 16:18:00,,0828.1,4.99,0.00,29.4,28.3,00.0,38.1,31.3,09.2,0000.0,0010.73,0003.39,0002.15
2022-10-20 16:19:00,,0828.1,5.00,0.00,29.4,28.3,00.0,38.1,31.3,09.3,0000.0,0010.43,0003.30,0002.11
2022-10-20 16:20:00,,0828.1,5.02,0.00,29.5,28.3,00.0,38.2,31.3,09.4,0000.0,0010.17,0003.22,0002.07
2022-10-20 16:21:00,,0828.1,5.00,0.00,29.5,28.4,00.0,38.2,31.3,09.8,0000.0,0010.33,0003.17,0002.05
2022-10-20 16:22:00,,0828.1,4.99,0.00,29.5,28.4,00.0,38.2,31.4,09.6,0000.0,0010.76,0003.13,0002.01
2022-10-20 16:23:00,,0828.0,5.00,0.00,29.5,28.4,00.0,38.2,31.4,09.5,0000.0,0011.35,0003.12,0001.99
2022-10-20 16:24:00,,0828.0,5.00,0.00,29.5,28.4,00.0,38.2,31.4,09.3,0000.0,0011.25,0003.13,0001.98
2022-10-20 16:25:00,,0828.0,5.00,0.00,29.6,28.4,00.0,38.3,31.4,09.4,0000.0,0011.08,0003.07,0001.95
2022-10-20 16:26:00,,0828.0,4.99,0.00,29.6,28.4,00.0,38.3,31.4,09.5,0000.0,0010.55,0003.03,0001.93
2022-10-20 16:27:00,,0828.0,4.99,0.00,29.6,28.4,00.0,38.3,31.4,09.6,0000.0,0009.39,0003.05,0001.92
2022-10-20 16:28:00,,0828.0,5.00,0.00,29.6,28.5,00.0,38.3,31.4,09.9,0000.0,0010.69,0003.08,0001.92
2022-10-20 16:29:00,,0828.0,4.99,0.00,29.6,28.5,00.0,38.3,31.5,10.6,0000.0,0011.13,0003.12,0001.92
2022-10-20 16:30:00,,0828.0,5.00,0.00,29.7,28.5,00.0,38.4,31.5,10.4,0000.0,0011.19,0003.12,0001.92
2022-10-20 16:31:00,,0828.0,5.00,0.00,29.7,28.5,00.0,38.4,31.5,10.5,0000.0,0010.73,0003.14,0001.91
2022-10-20 16:32:00,,0828.0,4.99,0.00,29.7,28.5,00.0,38.4,31.5,10.1,0000.0,0010.07,0003.10,0001.90
2022-10-20 16:33:00,,0828.0,4.99,0.00,29.7,28.5,00.0,38.4,31.6,10.2,0000.0,0009.74,0003.10,0001.90
2022-10-20 16:34:00,,0828.0,5.02,0.00,29.7,28.5,00.0,38.4,31.6,09.8,0000.0,0009.48,0003.06,0001.88
2022-10-20 16:35:00,,0828.0,5.00,0.00,29.7,28.6,00.0,38.5,31.6,09.7,0000.0,0010.28,0003.05,0001.86
2022-10-20 16:36:00,,0828.0,5.00,0.00,29.7,28.6,00.0,38.5,31.6,09.4,0000.0,0010.98,0003.09,0001.85
2022-10-20 16:37:00,,0828.0,5.00,0.00,29.8,28.6,00.0,38.5,31.6,10.1,0000.0,0011.13,0003.09,0001.84
2022-10-20 16:38:00,,0828.0,5.00,0.00,29.8,28.6,00.0,38.5,31.6,10.2,0000.0,0010.75,0003.06,0001.83
2022-10-20 16:39:00,,0828.0,4.99,0.00,29.8,28.6,00.0,38.5,31.7,10.0,0000.0,0009.79,0003.01,0001.81
2022-10-20 16:40:00,,0828.0,4.99,0.00,29.8,28.7,00.0,38.5,31.7,09.7,0000.0,0009.56,0002.86,0001.78
2022-10-20 16:41:00,,0828.0,5.02,0.00,29.8,28.7,00.0,38.6,31.7,09.5,0000.0,0009.80,0002.80,0001.77
2022-10-20 16:42:00,,0828.0,5.00,0.00,29.9,28.7,00.0,38.6,31.7,09.6,0000.0,0009.94,0002.82,0001.77
2022-10-20 16:43:00,,0828.0,4.99,0.00,29.9,28.7,00.0,38.6,31.8,09.6,0000.0,0010.04,0002.83,0001.75
2022-10-20 16:44:00,,0828.0,5.00,0.00,29.9,28.7,00.0,38.6,31.7,09.7,0000.0,0009.72,0002.81,0001.74
2022-10-20 16:45:00,,0828.0,5.00,0.00,29.9,28.7,00.0,38.6,31.8,09.9,0000.0,0009.51,0002.82,0001.74
2022-10-20 16:46:00,,0827.9,5.02,0.00,29.9,28.8,00.0,38.7,31.8,09.6,0000.0,0008.82,0002.81,0001.75
2022-10-20 16:47:00,,0827.9,5.00,0.00,29.9,28.8,00.0,38.7,31.8,09.1,0000.0,0008.76,0002.81,0001.75
2022-10-20 16:48:00,,0827.9,5.00,0.00,30.0,28.8,00.0,38.7,31.8,09.1,0000.0,0008.93,0002.78,0001.72
2022-10-20 16:49:00,,0828.0,4.99,0.00,30.0,28.8,00.0,38.7,31.9,09.3,0000.0,0009.06,0002.76,0001.71
2022-10-20 16:50:00,,0828.0,5.00,0.00,30.0,28.8,00.0,38.7,31.9,09.1,0000.0,0009.30,0002.65,0001.69
2022-10-20 16:51:00,,0828.0,5.01,0.00,30.0,28.8,00.0,38.7,31.9,08.2,0000.0,0009.24,0002.64,0001.67
2022-10-20 16:52:00,,0827.9,5.00,0.00,30.0,28.9,00.0,38.8,31.9,08.4,0000.0,0009.36,0002.63,0001.65
2022-10-20 16:53:00,,0828.0,5.01,0.00,30.0,28.9,00.0,38.8,31.9,08.6,0000.0,0009.70,0002.60,0001.61
2022-10-20 16:54:00,,0828.0,5.00,0.00,30.1,28.9,00.0,38.8,31.9,08.6,0000.0,0009.74,0002.60,0001.60
2022-10-20 16:55:00,,0827.9,5.00,0.00,30.1,28.9,00.0,38.8,31.9,08.9,0000.0,0010.15,0002.68,0001.60
2022-10-20 16:56:00,,0827.9,4.99,0.00,30.1,28.9,00.0,38.8,32.0,09.1,0000.0,0010.36,0002.71,0001.59
2022-10-20 16:57:00,,0827.9,4.99,0.00,30.1,29.0,00.0,38.9,32.0,09.1,0000.0,0010.79,0002.70,0001.57
2022-10-20 16:58:00,,0827.9,5.00,0.00,30.1,29.0,00.0,38.9,31.9,09.1,0000.0,0011.01,0002.69,0001.57
2022-10-20 16:59:00,,0827.9,5.02,0.00,30.1,29.0,00.0,38.9,32.0,09.0,0000.0,0012.07,0002.71,0001.57
